RH
56 74 80 86 70 43 56 53 55 74 82 85 85 70 57 45 37 32 29 29 26 21 16 13 13 14 14 15 14 15 17 26 30 40 48 52 67 78 75 72 64 60 70
53 73 72 87 66 46 54 56 86 88 84 82 65 52 35 26 20 15 12 11 10 10 10 10 10 11 11 12 13 13 14 14 14 18 31 54 75 79 95 93 82 71 65
44 68 62 86 55 64 55 83 85 83 76 72 59 35 23 16 10 9 9 10 10 10 10 11 12 12 12 12 12 12 12 13 14 15 16 30 63 79 83 87 84 79 76
35 68 55 80 53 80 80 89 83 71 78 68 40 22 12 10 9 9 9 10 10 10 11 11 10 10 11 11 12 12 12 12 13 17 21 23 33 50 61 60 60 53 50
27 56 46 72 78 82 86 88 72 69 66 43 23 12 10 9 9 10 11 11 10 10 11 11 11 11 11 12 13 12 13 14 14 18 20 24 28 33 60 60 50 75 78
22 34 42 76 77 81 82 68 67 57 43 24 12 10 9 10 11 11 11 12 11 11 11 12 12 12 13 13 13 14 15 18 21 24 27 28 31 42 90 97 95 91 78
45 67 71 66 72 73 59 64 57 43 24 12 10 10 10 11 11 12 12 12 11 12 12 12 13 14 14 14 14 18 20 23 23 25 23 29 78 89 89 96 98 99 96
75 55 61 75 83 66 67 63 47 26 13 11 10 10 11 12 12 12 12 12 12 12 12 14 14 16 15 15 18 20 24 22 21 19 24 38 76 94 95 94 96 98 96
62 43 72 93 87 68 75 57 36 17 11 11 11 11 13 13 12 13 13 13 13 13 14 16 18 18 18 21 26 28 25 23 18 20 32 72 100 92 74 90 95 96 97
46 80 89 91 65 77 69 49 25 12 12 11 12 13 13 13 13 14 14 14 14 15 15 15 18 21 21 29 31 30 25 24 21 29 81 95 70 97 92 85 96 91 89
100 92 95 78 67 78 60 43 20 13 12 12 14 14 13 13 14 14 15 14 14 15 15 15 21 27 26 26 31 31 29 26 25 40 68 95 82 64 80 76 79 93 85
99 98 95 66 82 76 56 38 17 13 13 12 14 14 14 14 14 14 15 15 14 16 15 20 24 28 31 31 32 34 30 30 28 45 96 97 86 74 81 88 91 90 90
98 98 93 72 88 72 55 38 16 14 13 13 13 14 15 15 14 13 14 15 16 16 19 24 26 27 30 33 33 33 34 35 30 51 88 85 96 94 90 87 82 94 95
99 96 82 80 89 71 57 38 16 14 14 14 14 15 15 15 14 13 14 15 15 17 21 24 26 26 30 33 33 33 35 35 33 41 55 84 95 90 88 90 92 90 98
99 88 77 89 90 71 60 36 16 15 15 15 15 15 16 15 14 14 13 13 16 17 21 23 26 29 30 33 35 36 36 37 35 36 47 66 95 100 99 98 98 88 96
98 89 79 93 91 72 62 37 18 15 16 15 15 16 16 16 16 14 13 14 16 18 19 22 26 28 32 36 35 38 36 36 35 37 38 41 66 87 92 93 90 95 96
79 85 86 98 92 74 62 40 20 17 17 16 16 16 16 17 16 14 14 14 16 18 18 20 25 30 32 34 34 36 38 37 36 37 36 40 42 48 63 66 70 75 98
77 80 86 97 93 74 64 44 24 18 18 18 18 17 16 17 16 16 15 14 16 18 20 19 21 26 32 36 35 38 40 40 39 38 38 40 46 48 53 54 56 57 82
81 79 87 96 91 76 65 48 30 22 20 20 20 19 18 17 17 17 17 15 16 20 20 20 20 22 26 34 38 39 39 42 38 41 41 43 52 58 56 86 74 91 88
83 81 78 88 90 76 69 56 43 28 22 23 23 22 20 19 19 19 18 17 16 18 20 22 22 21 24 34 41 44 46 43 40 44 47 47 51 57 63 78 80 98 91
89 86 80 76 90 83 70 63 56 40 27 25 26 26 24 22 21 20 20 18 17 18 19 20 22 25 27 37 46 57 63 54 51 45 42 45 50 52 52 66 71 65 69
100 94 86 82 83 87 81 77 70 59 43 33 31 31 29 26 24 23 22 21 19 18 18 19 20 24 26 30 40 53 65 70 60 55 52 51 54 56 54 61 68 76 74
62 92 94 88 85 88 79 76 77 60 44 38 41 41 41 34 29 26 24 23 21 18 18 19 20 22 24 24 32 40 48 59 59 65 63 62 61 60 59 60 68 69 70
74 81 75 88 84 87 91 76 79 77 65 55 56 57 60 52 38 31 27 25 23 19 17 19 21 22 22 22 24 25 27 41 43 68 69 69 66 65 67 65 75 66 66
80 74 73 82 92 84 97 81 78 78 72 59 61 60 68 64 58 42 32 27 25 21 18 18 21 22 23 25 25 26 27 28 30 40 65 72 72 69 71 70 73 74 70
80 80 74 78 81 76 91 88 79 81 75 64 62 65 70 69 66 57 40 29 27 24 19 17 20 24 26 27 27 27 28 29 31 38 46 62 62 65 76 75 76 84 81
Wind_Speed
33 30 28 24 20 19 19 18 17 16 14 13 13 9 6 4 4 5 5 5 4 3 1 0 0 1 2 2 3 2 1 1 1 1 0 1 1 3 4 6 6 6 5
38 33 29 26 22 20 19 19 17 15 15 13 8 5 4 4 4 4 3 3 2 1 1 1 1 2 2 3 3 3 2 2 2 2 2 1 2 2 4 3 2 3 3
37 34 31 27 23 22 21 19 19 16 12 9 5 5 4 4 3 3 3 2 2 1 1 1 2 3 3 3 3 2 2 2 1 1 1 3 2 1 2 2 4 6 6
36 35 32 28 25 23 22 21 18 13 12 8 6 5 4 4 4 3 3 2 1 1 1 1 2 2 2 2 2 1 1 1 1 1 1 2 3 4 6 8 9 11 11
34 34 31 29 26 25 23 21 16 13 10 8 6 5 4 4 4 3 3 2 2 2 2 2 2 3 2 2 1 2 2 2 3 3 2 2 3 5 7 7 10 10 10
35 33 32 29 28 26 24 19 15 12 9 8 6 5 5 4 4 4 4 3 3 3 3 4 4 4 4 3 3 5 5 5 5 5 6 6 5 5 8 11 12 11 5
35 33 31 29 29 26 22 19 14 11 9 8 7 6 6 6 5 5 4 4 4 4 4 4 5 5 5 4 6 7 7 7 7 7 7 8 13 10 8 9 10 9 9
35 33 31 28 27 24 21 18 14 12 10 9 7 6 6 6 6 5 5 5 5 5 5 5 6 6 6 5 8 8 9 10 10 10 11 11 11 11 10 11 10 11 11
33 32 32 30 26 23 20 16 14 12 11 9 8 7 7 7 6 6 6 6 6 5 5 5 6 6 6 7 10 11 12 12 11 12 12 15 14 14 11 10 10 11 12
33 32 34 31 27 24 20 16 14 12 11 9 9 8 8 7 7 7 6 6 5 5 5 5 6 7 7 9 11 11 13 13 14 15 18 18 15 14 14 15 15 13 20
35 34 33 31 28 24 20 17 15 13 11 10 10 9 8 8 8 7 7 6 6 5 5 6 8 8 8 9 10 11 12 14 14 15 20 17 18 17 16 16 19 19 16
38 36 34 30 28 24 21 18 16 14 12 11 10 10 9 8 7 7 6 6 5 5 5 8 9 8 8 10 10 11 12 13 14 17 22 20 15 16 18 19 17 16 14
38 36 34 31 28 24 21 19 17 15 13 12 11 10 9 9 7 7 7 6 6 6 7 8 8 8 9 9 10 10 12 13 14 14 19 21 18 16 18 17 11 11 11
37 36 34 31 29 25 21 19 17 16 14 12 12 11 10 8 8 7 6 6 6 6 6 7 8 9 9 9 9 9 11 12 13 11 14 18 22 17 15 12 12 11 13
36 36 34 32 29 25 22 20 18 16 14 12 11 10 9 8 7 6 5 5 5 5 6 7 8 9 8 8 9 9 10 10 11 10 10 11 14 16 15 13 11 10 12
34 36 34 32 29 25 22 20 19 17 15 13 12 10 10 9 7 5 4 4 4 5 6 6 7 8 8 8 7 8 9 9 8 8 8 7 6 5 5 4 3 6 10
34 34 35 32 29 26 24 21 20 17 15 13 12 11 10 8 7 6 4 3 4 5 6 6 7 7 7 7 6 7 7 7 7 7 6 5 4 2 2 2 1 3 11
34 35 36 33 30 27 24 22 20 18 16 14 13 12 10 10 8 6 4 3 4 5 6 6 7 7 7 7 6 7 6 6 6 6 5 4 4 4 1 1 1 2 8
37 36 36 34 31 28 25 22 21 19 17 16 15 13 11 10 9 7 5 4 5 5 6 7 7 6 7 8 7 7 6 5 4 4 5 4 4 5 7 7 6 7 7
38 35 34 31 30 29 26 23 23 21 20 18 16 14 13 12 10 9 7 5 5 6 7 7 7 7 8 9 8 8 7 7 5 5 4 4 4 4 5 4 7 6 8
38 36 34 33 31 32 30 28 26 24 22 20 18 16 14 13 11 10 8 7 6 6 7 7 8 7 8 10 10 9 7 6 4 5 4 4 4 4 4 3 6 9 10
30 36 36 34 31 33 31 27 26 24 23 21 19 18 15 14 13 11 10 9 7 8 8 8 8 8 8 11 9 10 8 7 5 5 5 5 3 3 4 4 5 7 9
29 33 37 33 35 34 33 31 29 29 27 24 23 20 18 16 15 13 12 11 10 9 9 9 9 9 9 10 12 7 6 6 11 8 5 3 2 1 2 4 3 4 7
45 35 35 40 40 37 37 36 34 32 30 24 23 22 19 17 16 15 14 13 12 11 11 10 10 10 10 10 11 11 9 6 7 9 9 5 3 2 2 1 3 4 3
46 46 41 37 41 41 40 39 38 35 31 26 27 23 21 19 18 18 17 16 14 13 13 12 11 11 11 11 11 10 9 8 9 7 9 10 7 5 5 4 5 5 7
51 50 43 38 44 41 41 40 41 36 33 31 28 27 23 19 19 20 19 18 16 15 15 14 13 12 12 12 11 11 10 9 9 8 7 10 8 8 8 8 7 7 7
Wind_Direction
172 172 169 170 167 163 159 155 146 139 135 136 143 149 159 162 168 165 167 174 183 182 183 105 341 322 326 338 356 8 15 232 228 195 110 45 62 37 13 11 8 13 17
166 171 166 171 168 164 159 151 146 153 151 158 155 162 176 167 168 160 158 156 151 142 104 73 26 360 351 349 349 347 325 295 277 274 265 349 81 94 61 35 60 346 331
169 169 169 170 167 162 156 152 158 164 166 168 179 181 176 171 163 151 141 133 122 107 64 20 10 2 354 344 339 335 297 300 291 284 263 259 263 250 316 4 347 334 323
168 170 171 168 168 166 160 163 167 169 170 184 190 184 174 168 159 148 139 129 120 100 67 46 36 21 6 349 348 322 335 309 324 23 339 297 291 288 284 291 295 297 296
170 172 171 170 167 168 165 173 176 177 182 189 188 180 171 160 149 138 129 122 110 86 71 60 51 50 50 51 55 53 54 32 14 16 10 349 319 326 355 1 21 38 32
170 170 172 171 168 171 174 177 178 182 185 183 182 172 163 152 140 131 125 114 99 82 69 65 66 67 74 74 66 63 59 56 46 31 30 32 29 39 54 54 56 32 33
167 168 170 174 175 177 176 176 179 182 180 179 174 167 159 148 139 130 121 112 102 93 88 86 90 93 92 82 74 75 72 68 61 52 49 55 51 47 61 65 48 41 39
169 169 168 173 174 175 176 175 178 179 177 174 167 160 150 141 134 126 118 109 101 99 100 99 95 97 95 88 89 87 80 70 56 58 65 59 66 64 58 66 52 46 45
173 169 170 176 176 178 176 178 179 177 174 169 161 153 147 140 131 126 124 116 108 104 104 102 107 109 107 93 88 82 77 70 61 66 65 66 56 53 66 70 66 57 49
171 175 177 177 180 179 178 179 178 177 172 164 157 152 147 141 135 130 124 111 104 103 105 111 118 116 104 91 90 85 75 68 70 79 68 58 72 64 57 66 66 63 62
178 182 181 181 181 180 180 178 178 177 171 164 160 156 154 149 143 137 126 118 115 116 107 108 112 113 100 95 95 83 75 72 77 83 78 71 54 63 76 74 74 67 65
180 185 185 184 182 181 182 182 182 178 171 169 168 163 162 155 144 135 133 127 128 121 113 110 112 112 103 94 92 83 79 76 82 89 81 72 60 67 72 71 75 78 76
184 188 187 185 185 185 185 185 183 180 176 172 172 169 164 158 150 141 142 137 126 122 114 110 109 113 110 101 96 91 82 80 86 101 95 94 79 71 72 86 79 64 52
190 192 190 188 187 187 189 189 187 182 180 177 173 168 167 163 158 151 141 136 130 122 121 118 116 117 114 107 98 89 85 83 88 98 99 104 93 86 81 70 65 48 47
194 196 193 190 190 189 189 191 189 187 184 181 177 174 167 170 164 150 145 140 135 132 130 126 123 121 119 109 101 92 88 87 89 95 99 108 112 107 107 99 82 48 35
198 200 197 193 193 191 191 194 194 190 188 183 182 179 177 175 167 161 157 148 148 142 144 137 136 131 129 116 107 98 88 87 89 90 94 107 140 154 139 134 116 66 39
207 204 201 196 195 195 194 195 196 194 190 187 188 184 183 180 182 179 174 165 158 156 155 150 149 142 135 128 120 106 95 90 91 86 88 96 103 145 210 251 320 44 56
210 205 202 199 198 197 197 197 198 194 193 193 193 191 187 191 191 192 187 181 171 164 161 160 160 156 152 142 132 117 106 94 91 81 79 84 77 59 20 257 56 63 54
207 203 200 202 199 198 199 197 197 195 196 197 198 196 196 197 198 202 205 200 188 174 174 172 171 165 165 157 149 138 130 114 84 80 83 79 56 34 31 38 42 46 26
201 202 196 205 202 199 199 199 198 197 199 201 203 203 204 204 205 208 211 214 206 194 188 184 180 173 173 167 156 145 136 125 102 113 94 79 71 56 33 32 355 46 23
199 200 197 204 208 202 200 200 203 203 202 202 204 208 210 213 213 215 218 220 216 208 202 196 191 182 174 174 172 160 147 143 117 129 131 110 91 65 49 18 7 21 19
212 202 205 208 217 210 206 210 213 208 207 207 206 209 214 218 220 222 225 226 226 222 217 211 203 200 190 187 189 181 177 182 168 153 147 139 116 62 33 27 5 353 347
236 223 215 214 216 214 212 213 215 213 213 208 208 210 217 222 224 227 229 232 232 229 226 222 215 211 212 200 197 199 179 186 173 182 184 175 154 49 22 356 354 326 326
214 216 221 220 214 215 214 217 221 222 219 217 224 222 218 223 229 232 233 234 234 233 232 229 225 222 220 218 207 215 221 189 181 181 205 200 206 259 241 301 281 331 348
212 214 216 214 213 217 216 223 223 223 227 223 226 217 217 222 228 234 235 236 236 236 234 235 232 229 228 225 221 220 214 205 203 188 192 204 226 236 225 249 275 307 330
217 214 214 225 219 222 228 223 228 228 226 227 227 221 220 225 234 237 236 235 235 236 236 237 236 235 232 231 230 229 228 224 219 205 187 187 209 224 230 238 260 282 301